Вернуться в каталог

DELTA 4 R/B

АктивенMEO
NORAD 57100·ROCKET BODY·🇺🇸 United States

Запущен Jun 22, 2023 с Cape Canaveral Space Force Station

Loading…

Ближайшие Пролёты (ближайшие 24 часа)

TLE

СвежийSource: Space-Track

Эпоха: Sep 14, 2026, 14:18 UTC

1 57100U 23089B   26257.59621076 -.00000212  00000-0  00000-0 0  9999
2 57100   2.3424 174.4442 0178055  83.7452 278.2407  0.96426923  8314

Отслеживайте DELTA 4 R/B в реальном времени с AllMySat

Download on the App Store